[[{"header":{"parameterUnit":"m.s-1","parameterCategory":1,"la1":30.2991,"la2":30.254,"lo1":-89.0895,"lo2":-89.0444,"dy":0.0017,"dx":0.0017,"nx":28,"ny":28,"refTime":"2025-06-19T09:00:00:Z","depth":0,"parameterNumber":2,"parameterNumberName":"U-component_of_WINDS"},"data":[0,0,0,0,0,0,0,0,0,0,0,0,0,0,0,0,0,0,0,0,0,0,0,0,0,0,0,0,0,0,0,0,0,0,0,0,0,0,0,0,0,0,0,0,0,0,0,0,0,0,0,0,0,0,0,0,0,0,3.9434,3.9436,0,3.9594,3.9595,3.9597,3.9561,3.9558,3.9555,3.9552,3.972,3.9727,3.9734,0,0,0,0,0,0,0,0,0,0,0,0,0,3.9101,3.9108,3.9434,3.9436,3.9438,3.9593,3.9595,3.9598,3.9562,3.9558,3.9555,3.9551,3.9717,3.9726,3.9735,0,0,0,0,0,0,0,0,0,0,0,0,0,3.9252,3.911,3.9433,3.9439,3.9441,3.9593,3.9595,3.9598,3.9563,3.9558,3.9554,3.9549,3.9714,3.9725,3.9736,3.9894,0,0,3.9769,3.9774,0,0,0,0,0,0,0,0,3.9244,3.9264,3.9436,3.9439,3.9441,3.9553,3.9539,3.9697,3.9564,3.9517,3.9552,3.9547,3.9668,3.9682,3.9723,3.9902,3.9909,3.977,3.9777,3.9781,3.9784,0,0,0,0,0,0,0,3.9233,3.9257,3.9497,3.9438,3.9442,3.9434,3.945,3.9569,3.9616,3.952,3.9518,3.9537,3.9669,3.9712,3.9726,3.9911,3.977,3.9779,3.9786,3.979,4.0229,4.0234,0,0,0,0,0,0,3.922,3.9249,3.9492,3.9502,3.9329,3.9444,3.9462,3.9522,3.9614,3.9624,3.9541,3.9535,3.9696,3.9713,3.9732,3.9923,3.9781,3.9791,3.9798,4.0224,4.023,4.0235,0,0,0,0,0,0,3.9213,3.9242,3.9486,3.9375,3.9405,3.9454,3.9521,3.9527,3.957,3.963,3.9638,3.9577,3.9693,3.9717,3.9854,3.9929,3.9796,3.9806,4.0218,4.0226,4.0233,4.0307,0,0,0,0,0,0,3.9204,3.924,3.9299,3.9376,3.9411,3.9604,3.9526,3.9534,3.9589,3.9583,3.9666,3.9675,3.9691,3.9838,3.9865,3.9941,3.9815,4.0211,4.0221,4.023,4.0298,4.0316,4.0332,0,0,0,0,0,3.9192,3.9315,3.9303,3.9332,3.9487,3.9608,3.9628,3.9643,3.9595,3.9656,3.9694,3.9672,3.9916,3.9852,3.9882,3.9963,4.0207,4.0218,4.0229,4.0291,4.0313,4.0331,0,0,0,0,0,0,3.9246,3.9325,3.9312,3.9463,3.9529,3.9602,3.9679,3.9666,3.9748,3.9739,3.9755,3.9774,3.9913,3.9952,3.9879,4.0121,4.0055,4.0073,4.0091,4.0112,4.0129,4.0117,3.9824,0,0,0,0,0,3.9276,3.9367,3.9431,3.9558,3.9592,3.963,3.9683,3.9689,3.9758,3.9786,3.9835,3.9904,3.9996,4.0056,4.0144,4.0304,4.0322,4.0374,4.0391,4.0405,4.042,4.0508,4.0532,4.0273,4.0273,4.0273,0,0,3.9338,3.9392,3.9449,3.957,3.9622,3.9717,3.9654,3.9757,3.9827,3.9802,3.9934,3.9972,4.0051,4.02,4.0268,4.0236,4.0496,4.0419,4.043,4.0438,4.0522,4.0547,4.0568,4.0281,4.0279,4.0278,0,0,3.9499,3.9549,3.9661,3.9714,3.9792,3.9817,3.9844,3.9919,3.9943,4.0075,4.0058,4.0144,4.0302,4.0358,4.0408,4.0591,4.0574,4.062,4.0708,4.0793,4.0814,4.0832,4.0898,4.0921,4.0635,4.0635,4.0635,0,3.9567,3.9708,3.972,3.9825,3.9879,3.986,3.9974,4.0025,4.0129,4.0167,4.013,4.0328,4.038,4.0542,4.0586,4.0627,4.0659,4.061,4.0809,4.0828,4.0845,4.0908,4.0933,4.064,4.0639,4.0639,4.0638,0,3.9788,3.9886,3.9967,4.0066,4.013,4.0239,4.0268,4.0332,4.0332,4.0361,4.0497,4.0558,4.0658,4.0697,4.0698,4.086,4.0837,4.0805,4.0738,4.0874,4.0934,4.0958,4.0647,4.0645,4.0644,4.0643,0,0,3.9988,4.0093,4.0122,4.0167,4.0253,4.033,4.0438,4.0535,4.0589,4.0662,4.0753,4.0888,4.0858,4.0914,4.0922,4.0997,4.1139,4.0956,4.0958,4.0988,4.1321,4.1345,4.1373,4.1128,4.1133,4.1137,4.1315,0,4.0158,4.0347,4.0361,4.0533,4.0624,4.0607,4.0702,4.0765,4.0795,4.0878,4.0912,4.1007,4.096,4.0994,4.1067,4.1106,4.1206,4.1094,4.1215,4.1219,4.1196,4.1404,4.143,4.1594,4.1338,4.1342,4.1345,0,4.0381,4.0458,4.0639,4.0711,4.075,4.0835,4.0925,4.1004,4.1076,4.1093,4.1156,4.1153,4.1266,4.1195,4.1351,4.1274,4.1325,4.1352,4.1358,4.137,4.129,4.1422,4.1647,4.1672,4.1381,4.1378,4.1376,0,4.0509,4.0659,4.0787,4.0826,4.0914,4.0974,4.1013,4.1081,4.1138,4.1217,4.1255,4.1346,4.1397,4.1469,4.1492,4.1438,4.1647,4.1578,4.1665,4.1665,4.171,4.1707,4.1947,4.1743,4.1742,4.1742,4.1741,0,4.0697,4.0808,4.0845,4.0924,4.1048,4.1064,4.1187,4.1223,4.1283,4.1369,4.1361,4.1442,4.1467,4.1554,4.1573,4.1699,4.1722,4.1739,4.1743,4.174,4.1738,4.1774,4.1763,4.1748,4.1747,4.1745,4.1744,0,4.0861,4.0891,4.1028,4.11,4.1121,4.1209,4.1271,4.1348,4.1376,4.1485,4.1512,4.1557,4.1658,4.1688,4.181,4.1822,4.1971,4.1964,4.1946,4.1946,4.2032,4.2023,4.2303,4.2341,4.2112,4.2114,4.2116,0,4.0979,4.1064,4.1145,4.1201,4.1243,4.1334,4.1392,4.1411,4.1473,4.1561,4.1627,4.1726,4.1807,4.1969,4.2013,4.2107,4.2102,4.2194,4.2116,4.2111,4.2104,4.2099,4.2107,4.2209,4.2211,4.2213,4.2215,0,4.1186,4.1196,4.1279,4.1369,4.1438,4.151,4.1578,4.1625,4.1655,4.1724,4.1826,4.1889,4.2013,4.2112,4.2206,4.2248,4.2238,4.2239,4.2264,4.2262,4.2248,4.2257,4.1986,4.2232,4.2231,4.2229,4.2228,4.2228,4.1331,4.1405,4.1474,4.1567,4.1621,4.1685,4.176,4.1798,4.1883,4.1984,4.1991,4.2102,4.2172,4.2298,4.2345,4.2433,4.2406,4.2443,4.2452,4.2461,4.2468,4.2234,4.245,4.245,4.245,4.2449,4.2449,0,4.1537,4.158,4.1665,4.1761,4.1835,4.1817,4.1892,4.1956,4.2053,4.2119,4.2198,4.2316,4.2412,4.2464,4.256,4.2621,4.2618,4.2645,4.2641,4.2651,4.2486,4.2455,4.2646,4.2646,4.2646,4.2646,4.2646,4.2646,4.1652,4.1778,4.1796,4.1949,4.1991,4.2099,4.2144,4.2203,4.2256,4.2388,4.2467,4.25,4.2561,4.2661,4.2749,4.2762,4.2798,4.2828,4.2838,4.2683,4.2663,4.2644,4.2614,4.2836,4.2836,4.2996,4.2998,4.2999]},{"header":{"parameterUnit":"m.s-1","parameterCategory":1,"la1":30.2991,"la2":30.254,"lo1":-89.0895,"lo2":-89.0444,"dy":0.0017,"dx":0.0017,"nx":28,"ny":28,"refTime":"2025-06-19T09:00:00:Z","depth":0,"parameterNumber":3,"parameterNumberName":"V-component_of_WINDS"},"data":[0,0,0,0,0,0,0,0,0,0,0,0,0,0,0,0,0,0,0,0,0,0,0,0,0,0,0,0,0,0,0,0,0,0,0,0,0,0,0,0,0,0,0,0,0,0,0,0,0,0,0,0,0,0,0,0,0,0,-0.7964,-0.7965,0,-0.7991,-0.7991,-0.7991,-0.7996,-0.7995,-0.7995,-0.7995,-0.8021,-0.8022,-0.8022,0,0,0,0,0,0,0,0,0,0,0,0,0,-0.7917,-0.7918,-0.7964,-0.7965,-0.7965,-0.7991,-0.7991,-0.7991,-0.7996,-0.7995,-0.7995,-0.7995,-0.802,-0.8022,-0.8023,0,0,0,0,0,0,0,0,0,0,0,0,0,-0.794,-0.7918,-0.7964,-0.797,-0.7971,-0.799,-0.7991,-0.7991,-0.7996,-0.7995,-0.7995,-0.7995,-0.802,-0.8021,-0.8023,-0.8038,0,0,-0.8027,-0.8027,0,0,0,0,0,0,0,0,-0.7939,-0.7942,-0.7969,-0.797,-0.7971,-0.799,-0.7984,-0.8007,-0.7996,-0.7986,-0.7995,-0.7995,-0.8011,-0.8013,-0.8018,-0.8039,-0.804,-0.8027,-0.8028,-0.8028,-0.8029,0,0,0,0,0,0,0,-0.7937,-0.794,-0.7975,-0.7969,-0.7971,-0.7971,-0.7974,-0.7988,-0.8,-0.7987,-0.7988,-0.7991,-0.8011,-0.8017,-0.8019,-0.804,-0.8027,-0.8028,-0.8029,-0.8029,-0.8074,-0.8075,0,0,0,0,0,0,-0.7934,-0.7939,-0.7974,-0.7975,-0.7954,-0.7973,-0.7976,-0.7984,-0.8,-0.8002,-0.7991,-0.7991,-0.8015,-0.8017,-0.802,-0.8038,-0.8028,-0.803,-0.803,-0.8074,-0.8075,-0.8075,0,0,0,0,0,0,-0.7933,-0.7938,-0.7973,-0.7957,-0.7962,-0.7974,-0.7983,-0.7985,-0.7991,-0.8003,-0.8005,-0.7995,-0.8015,-0.8018,-0.8033,-0.8039,-0.803,-0.8031,-0.8074,-0.8074,-0.8075,-0.8075,0,0,0,0,0,0,-0.7932,-0.7937,-0.7943,-0.7958,-0.7963,-0.7986,-0.7983,-0.7985,-0.7993,-0.7993,-0.8007,-0.8009,-0.8015,-0.8031,-0.8035,-0.8041,-0.8032,-0.8073,-0.8074,-0.8075,-0.8075,-0.8076,-0.8076,0,0,0,0,0,-0.793,-0.7942,-0.7943,-0.7947,-0.797,-0.7986,-0.7989,-0.7996,-0.7993,-0.7999,-0.8007,-0.8009,-0.8038,-0.8033,-0.8037,-0.8043,-0.8073,-0.8074,-0.8075,-0.8074,-0.8075,-0.8076,0,0,0,0,0,0,-0.7927,-0.7944,-0.7946,-0.7962,-0.7973,-0.7987,-0.7995,-0.7997,-0.8008,-0.8008,-0.8015,-0.8019,-0.8033,-0.804,-0.8034,-0.8059,-0.8055,-0.8057,-0.8054,-0.8055,-0.8056,-0.8054,-0.8034,0,0,0,0,0,-0.7928,-0.794,-0.7954,-0.7967,-0.7972,-0.7983,-0.799,-0.7994,-0.8005,-0.801,-0.8019,-0.8029,-0.8041,-0.8048,-0.806,-0.8076,-0.8079,-0.8082,-0.8083,-0.8084,-0.8085,-0.8094,-0.8096,-0.8078,-0.8078,-0.8078,0,0,-0.7931,-0.7941,-0.7948,-0.7967,-0.7975,-0.7987,-0.7986,-0.7999,-0.8007,-0.8011,-0.8026,-0.8034,-0.8046,-0.8062,-0.8069,-0.8068,-0.8091,-0.8085,-0.8086,-0.8086,-0.8095,-0.8097,-0.8098,-0.8079,-0.8078,-0.8078,0,0,-0.7941,-0.7951,-0.7963,-0.7972,-0.7985,-0.7992,-0.7995,-0.8009,-0.8014,-0.8029,-0.8033,-0.8043,-0.8063,-0.8072,-0.8079,-0.8094,-0.8095,-0.8097,-0.8102,-0.811,-0.8112,-0.8113,-0.8118,-0.812,-0.8098,-0.8098,-0.8098,0,-0.7942,-0.796,-0.7968,-0.7981,-0.7989,-0.7994,-0.8006,-0.8014,-0.8031,-0.8036,-0.8034,-0.806,-0.8068,-0.8086,-0.809,-0.8096,-0.8099,-0.8095,-0.8111,-0.8112,-0.8114,-0.8118,-0.812,-0.8099,-0.8099,-0.8099,-0.8098,0,-0.7961,-0.7974,-0.7982,-0.7998,-0.8007,-0.8019,-0.8029,-0.8037,-0.8041,-0.8048,-0.8063,-0.8074,-0.8088,-0.8093,-0.8096,-0.8111,-0.811,-0.811,-0.8106,-0.8115,-0.812,-0.8122,-0.8099,-0.8099,-0.8099,-0.8099,0,0,-0.7969,-0.7991,-0.7993,-0.8001,-0.8016,-0.8026,-0.8039,-0.8053,-0.8059,-0.8071,-0.8081,-0.8099,-0.8099,-0.8107,-0.8111,-0.8119,-0.813,-0.8118,-0.8118,-0.8119,-0.8147,-0.8146,-0.8148,-0.8131,-0.8132,-0.8132,-0.8145,0,-0.7981,-0.8004,-0.8012,-0.803,-0.8042,-0.8047,-0.8058,-0.8069,-0.8076,-0.8087,-0.8094,-0.8106,-0.8106,-0.8111,-0.8119,-0.8127,-0.8135,-0.8126,-0.8141,-0.8141,-0.8137,-0.8151,-0.815,-0.8162,-0.8147,-0.8148,-0.8148,0,-0.7998,-0.801,-0.803,-0.8045,-0.805,-0.806,-0.8073,-0.8084,-0.8096,-0.81,-0.811,-0.8114,-0.8127,-0.8124,-0.8142,-0.8136,-0.8142,-0.8147,-0.8148,-0.8149,-0.8144,-0.8152,-0.8166,-0.8168,-0.8151,-0.8151,-0.815,0,-0.8002,-0.8023,-0.8038,-0.8044,-0.8062,-0.8068,-0.8076,-0.8088,-0.8096,-0.8108,-0.8113,-0.8126,-0.8133,-0.8143,-0.8151,-0.8148,-0.8168,-0.8166,-0.8172,-0.8172,-0.8176,-0.8175,-0.8191,-0.8181,-0.8181,-0.8181,-0.8181,0,-0.8014,-0.8026,-0.804,-0.8049,-0.8062,-0.8071,-0.8084,-0.8092,-0.8103,-0.8113,-0.8119,-0.8128,-0.8138,-0.8149,-0.8156,-0.8169,-0.8173,-0.8177,-0.8178,-0.8176,-0.8175,-0.818,-0.8179,-0.8181,-0.8181,-0.8181,-0.8181,0,-0.802,-0.803,-0.8046,-0.8061,-0.8066,-0.8075,-0.8088,-0.8097,-0.8104,-0.8118,-0.8121,-0.8133,-0.8146,-0.8155,-0.8172,-0.8176,-0.8191,-0.8193,-0.8187,-0.8188,-0.8194,-0.8193,-0.8213,-0.8215,-0.8204,-0.8204,-0.8204,0,-0.8026,-0.8036,-0.8052,-0.806,-0.8068,-0.808,-0.8088,-0.8098,-0.8106,-0.8121,-0.8128,-0.8142,-0.8153,-0.8174,-0.8184,-0.8197,-0.8199,-0.8205,-0.8201,-0.8198,-0.8198,-0.8197,-0.8198,-0.8205,-0.8205,-0.8205,-0.8205,0,-0.8037,-0.8042,-0.8054,-0.8068,-0.8078,-0.8089,-0.81,-0.8106,-0.8118,-0.8127,-0.8141,-0.815,-0.8167,-0.8181,-0.8195,-0.8202,-0.8206,-0.8207,-0.8209,-0.8206,-0.8202,-0.8204,-0.8188,-0.8206,-0.8206,-0.8206,-0.8206,-0.8206,-0.8044,-0.8052,-0.8066,-0.8079,-0.8088,-0.8099,-0.8108,-0.8117,-0.8129,-0.8144,-0.8149,-0.8163,-0.8176,-0.8195,-0.8203,-0.8214,-0.8214,-0.8217,-0.8218,-0.8218,-0.8218,-0.8201,-0.8217,-0.8217,-0.8217,-0.8217,-0.8217,0,-0.8055,-0.8064,-0.8076,-0.8092,-0.8102,-0.8105,-0.8118,-0.8126,-0.8139,-0.8151,-0.8162,-0.8178,-0.8191,-0.8202,-0.8216,-0.8223,-0.8225,-0.8226,-0.8225,-0.8227,-0.8218,-0.8214,-0.8224,-0.8224,-0.8224,-0.8224,-0.8224,-0.8224,-0.8062,-0.8076,-0.8082,-0.8102,-0.8111,-0.8125,-0.8132,-0.8142,-0.8151,-0.8169,-0.818,-0.8188,-0.8199,-0.8214,-0.8226,-0.8229,-0.8234,-0.8235,-0.8238,-0.8229,-0.8228,-0.8227,-0.8224,-0.8236,-0.8236,-0.8246,-0.8246,-0.8246]}]]